STARLINK-4342, 53070

Orbit data source: Space-Track

STARLINK-4342, 53070 is a payload satellite owned by SpaceX/Seattle (US) in SSO that was launched on Mon, 11 Jul 2022 UTC via an FALCON 9 launch vehicle from the Air Force Western Test Range (AFWTR). Payload-class satellites include a variety of spacecraft equipped with specific instruments for various scientific and technological missions. These include communications satellites like Starlink; space stations such as the ISS; scientific satellites like the Hubble; Earth observation satellites from companies like Planet Labs, Umbra, and HawkEye 360; GPS; miniature CubeSats for education and research; and military/defense satellites.

Loading next visibility...
Identifier
53070, 2022-077AD
Orbit
SSO
Country
Flag of USUS
Related business
Manufacturer
SpaceX/Seattle
Mission
Operational Commercial Communications
Bus & Motor
STARLINK, Unknown motor
Mass
297 kg wet, ~275 kg dry
Launch date (UTC)
2022-07-11 (3 years ago)
Launch vehicle
FALCON 9
Launch site
Air Force Western Test Range (AFWTR)
Object type
Payload
Rocket body
Debris
Shape & HBR
Box + 1 Pan, 10.1 m
Radar Cross Section
13.562 m², Large (>1 m²)

Expand to show TLE details & history
Last TLE update: 16 hours ago

TLE from 16 hours ago
0 STARLINK-4342
1 53070U 22077AD  25348.92813918  .00000600  00000-0  45758-4 0  9995
2 53070  97.6019 167.7582 0001681  85.5420 274.5999 15.05653888188231
Epoch: 2025-12-14T22:16Z
TLE epoch observation values (Epoch: 2025-12-14T22:16:31.225Z)
Latitude
0.00002°
Longitude
109.79407°
Altitude
552.471 km
Speed
7.586 km/s
True Right ascension
11h 11m 01s
True Declination
0° 00' 00"
Sunlit
Object was in daylight at epoch
Visualization orbit readout
Latitude
Unknown
Longitude
Unknown
Altitude
Unknown
Speed
Unknown
Apparent Right ascension
Unknown
Apparent Declination
Unknown
Sunlit
N/A
Visualization observer readout
Local Sidereal Time
13:19:51
Azimuth
Unknown
Elevation
Unknown
Doppler factor
Unknown
Orbital elements
Apogee altitude
547.657 km
Perigee altitude
545.329 km
Semi-major axis
6,924.63 km
Eccentricity
0.00017
Inclination
97.6019°
RAAN
167.7582°
Arg. of periapsis
85.542°
True anomaly
274.5807°
Mean anomaly
274.5999°
Eccentric anomaly
274.5903°
Mean motion
3.76659 °/min
Orbital period
95.58 mins
BSTAR
0.000045758
Loading maneuver chart data...
Computing Atmospheric mass density...
Loading historical data...
Loading historical data...
Loading historical data...
Loading historical data...
Loading historical data...
Loading historical data...
Loading historical data...

Documentation

Showing up to 5 results
|